This is the latest recevied weather packets stored in our database for station/object K6TTR. If no packets are shown the sender has not sent any weather packets the latest 10 day(s).
| Time | Temp. | Humidity | Pressure | Rain* | Wind** | Luminosity | Snow |
|---|---|---|---|---|---|---|---|
| 1787808744 | 13.89° C | 42% | 1021.8 hPa | 0 mm | - | 0 W/m² | - |
| 1787808443 | 13.89° C | 41% | 1021.9 hPa | 0 mm | - | 0 W/m² | - |
| 1787808143 | 13.89° C | 41% | 1021.9 hPa | 0 mm | - | 0 W/m² | - |
| 1787807841 | 14.44° C | 41% | 1021.9 hPa | 0 mm | - | 0 W/m² | - |
| 1787807542 | 14.44° C | 40% | 1021.9 hPa | 0 mm | - | 0 W/m² | - |
| 1787807245 | 15° C | 40% | 1021.8 hPa | 0 mm | - | 0 W/m² | - |
| 1787806948 | 15° C | 40% | 1021.8 hPa | 0 mm | - | 0 W/m² | - |
| 1787806647 | 15° C | 40% | 1021.8 hPa | 0 mm | - | 0 W/m² | - |
| 1787806349 | 15.56° C | 39% | 1021.8 hPa | 0 mm | - | 0 W/m² | - |
| 1787806047 | 15.56° C | 39% | 1021.9 hPa | 0 mm | - | 0 W/m² | - |
| 1787805748 | 15.56° C | 39% | 1021.7 hPa | 0 mm | - | 0 W/m² | - |
| 1787805446 | 16.11° C | 38% | 1021.6 hPa | 0 mm | - | 0 W/m² | - |
| 1787805148 | 16.11° C | 37% | 1021.5 hPa | 0 mm | - | 0 W/m² | - |
| 1787804846 | 16.67° C | 37% | 1021.4 hPa | 0 mm | - | 0 W/m² | - |
| 1787804546 | 16.67° C | 37% | 1021.6 hPa | 0 mm | - | 0 W/m² | - |
| 1787804244 | 17.22° C | 37% | 1021.4 hPa | 0 mm | - | 0 W/m² | - |
| 1787803947 | 17.22° C | 36% | 1021.3 hPa | 0 mm | - | 0 W/m² | - |
| 1787803646 | 17.78° C | 36% | 1021.3 hPa | 0 mm | - | 0 W/m² | - |
| 1787803347 | 17.78° C | 35% | 1021.3 hPa | 0 mm | - | 0 W/m² | - |
| 1787803045 | 18.33° C | 35% | 1021.4 hPa | 0 mm | - | 0 W/m² | - |
| 1787802747 | 18.33° C | 34% | 1021.4 hPa | 0 mm | - | 0 W/m² | - |
| 1787802452 | 18.89° C | 34% | 1021.3 hPa | 0 mm | - | 0 W/m² | - |
| 1787802148 | 18.89° C | 34% | 1021 hPa | 0 mm | - | 0 W/m² | - |
| 1787801846 | 19.44° C | 33% | 1020.8 hPa | 0 mm | - | 0 W/m² | - |
| 1787801549 | 20° C | 33% | 1020.7 hPa | 0 mm | - | 0 W/m² | - |
* Rain latest hour (hover to see other rain measurements)
** Current wind speed in m/s (hover to see current wind gust speed)